TimePDT,TemperatureF,Dew PointF,Humidity,Sea Level PressureIn,VisibilityMPH,Wind Direction,Wind SpeedMPH,Gust SpeedMPH,PrecipitationIn,Events,Conditions,WindDirDegrees,DateUTC
12:53 AM,45.0,35.1,68,30.19,10.0,East,5.8,-,N/A,,Overcast,100,2013-04-30 07:53:00
1:53 AM,44.1,34.0,68,30.19,10.0,ESE,8.1,-,N/A,,Mostly Cloudy,110,2013-04-30 08:53:00
2:53 AM,44.1,34.0,68,30.19,10.0,ESE,6.9,-,N/A,,Overcast,120,2013-04-30 09:53:00
3:53 AM,43.0,33.1,68,30.20,10.0,ESE,5.8,-,N/A,,Partly Cloudy,120,2013-04-30 10:53:00
4:53 AM,42.1,33.1,70,30.21,10.0,SE,6.9,-,N/A,,Partly Cloudy,130,2013-04-30 11:53:00
5:53 AM,42.1,33.1,70,30.23,10.0,ENE,5.8,-,N/A,,Mostly Cloudy,70,2013-04-30 12:53:00
6:53 AM,41.0,35.1,79,30.25,10.0,East,5.8,-,0.00,,Scattered Clouds,100,2013-04-30 13:53:00
7:53 AM,44.1,35.1,71,30.27,10.0,ESE,5.8,-,N/A,,Scattered Clouds,120,2013-04-30 14:53:00
8:53 AM,45.0,35.1,68,30.29,10.0,East,4.6,-,N/A,,Mostly Cloudy,80,2013-04-30 15:53:00
9:53 AM,46.0,33.1,61,30.31,10.0,NNE,4.6,-,N/A,,Mostly Cloudy,30,2013-04-30 16:53:00
10:53 AM,50.0,35.1,57,30.32,10.0,ESE,5.8,-,N/A,,Mostly Cloudy,110,2013-04-30 17:53:00
11:53 AM,48.9,30.9,50,30.33,10.0,Calm,Calm,-,N/A,,Mostly Cloudy,0,2013-04-30 18:53:00
12:53 PM,52.0,32.0,47,30.34,10.0,Calm,Calm,-,N/A,,Scattered Clouds,0,2013-04-30 19:53:00
1:53 PM,54.0,30.9,41,30.35,10.0,NW,8.1,-,N/A,,Scattered Clouds,310,2013-04-30 20:53:00
2:53 PM,55.0,30.0,38,30.36,10.0,Variable,5.8,-,N/A,,Scattered Clouds,0,2013-04-30 21:53:00
3:53 PM,55.0,28.0,35,30.37,10.0,NW,8.1,-,N/A,,Scattered Clouds,310,2013-04-30 22:53:00
4:53 PM,55.9,28.9,36,30.37,10.0,NNW,4.6,-,N/A,,Scattered Clouds,330,2013-04-30 23:53:00
5:53 PM,55.0,30.0,38,30.38,10.0,Variable,4.6,-,N/A,,Scattered Clouds,0,2013-05-01 00:53:00
6:53 PM,54.0,28.9,38,30.39,10.0,Variable,4.6,-,N/A,,Overcast,0,2013-05-01 01:53:00
7:53 PM,54.0,28.9,38,30.40,10.0,NE,3.5,-,N/A,,Overcast,50,2013-05-01 02:53:00
8:53 PM,52.0,30.9,45,30.40,10.0,NE,3.5,-,N/A,,Mostly Cloudy,40,2013-05-01 03:53:00
9:53 PM,51.1,30.9,46,30.42,10.0,NNE,3.5,-,N/A,,Clear,30,2013-05-01 04:53:00
10:53 PM,50.0,33.1,52,30.44,10.0,NE,3.5,-,N/A,,Scattered Clouds,40,2013-05-01 05:53:00
11:53 PM,46.9,33.1,59,30.45,10.0,SE,4.6,-,N/A,,Clear,130,2013-05-01 06:53:00